DECAYED

STARLINK-5565, 55745 (Decayed)

Orbit data source: Space-Track

STARLINK-5565, 55745 was a payload satellite owned by SpaceX/Seattle (US) in LEO that was launched on Fri, 03 Mar 2023 UTC via an FALCON 9 launch vehicle from the Air Force Western Test Range (AFWTR). Payload-class satellites include a variety of spacecraft equipped with specific instruments for various scientific and technological missions. These include communications satellites like Starlink; space stations such as the ISS; scientific satellites like the Hubble; Earth observation satellites from companies like Planet Labs, Umbra, and HawkEye 360; GPS; miniature CubeSats for education and research; and military/defense satellites.

Not visible in the next 10 days
Identifier
55745, 2023-028E
Orbit
Decayed
Country
Flag of USUS
Related business
Manufacturer
SpaceX/Seattle
Mission
Decayed Commercial Communications
Bus & Motor
STARLINK, Unknown motor
Mass
305 kg wet, ~290 kg dry
Launch date (UTC)
2023-03-03 (3 years ago)
Launch vehicle
FALCON 9
Launch site
Air Force Western Test Range (AFWTR)
Object type
Payload
Rocket body
Debris
Shape & HBR
Box + 1 Pan, 10.1 m
Radar Cross Section
11.087 m², Large (>1 m²)

Expand to show TLE details & history
Last TLE update: 1 year ago

TLE from 1 year ago
0 STARLINK-5565
1 55745U 23028E   25059.64071941  .10865263  44198-5  27964-3 0  9997
2 55745  69.9685  90.1836 0005743 290.3697 187.4649 16.45575406110423
Epoch: 2025-02-28T15:22Z
TLE epoch observation values (Epoch: 2025-02-28T15:22:38.157Z)
Latitude
56.31249°
Longitude
-152.11628°
Altitude
163.543 km
Speed
7.812 km/s
True Right ascension
15h 48m 57s
True Declination
56° 08' 21"
Sunlit
Object was in full shadow at epoch
Visualization orbit readout
Latitude
Unknown
Longitude
Unknown
Altitude
Unknown
Speed
Unknown
Apparent Right ascension
Unknown
Apparent Declination
Unknown
Sunlit
N/A
Visualization observer readout
Local Sidereal Time
21:26:38
Azimuth
Unknown
Elevation
Unknown
Doppler factor
Unknown
Orbital elements
Apogee altitude
152.581 km
Perigee altitude
145.084 km
Semi-major axis
6,526.969 km
Eccentricity
0.00057
Inclination
69.9685°
RAAN
90.1836°
Arg. of periapsis
290.3697°
True anomaly
187.45636°
Mean anomaly
187.4649°
Eccentric anomaly
187.46063°
Mean motion
4.116 °/min
Orbital period
87.46 mins
BSTAR
0.00027964
Loading maneuver chart data...
Computing Atmospheric mass density...
Loading historical data...
Loading historical data...
Loading historical data...
Loading historical data...
Loading historical data...
Loading historical data...
Loading historical data...

Documentation

Showing up to 5 results
|